This is the latest recevied weather packets stored in our database for station/object K5YNC. If no packets are shown the sender has not sent any weather packets the latest 1 day(s).
| Time | Temp. | Humidity | Pressure | Rain* | Wind** | Luminosity | Snow |
|---|---|---|---|---|---|---|---|
| 1777997021 | 25.56° C | 70% | 1005.2 hPa | 0 mm | 0.89 m/s, 198° | 260 W/m² | - |
| 1777996717 | 25.56° C | 70% | 1005.5 hPa | 0 mm | 2.68 m/s, 202° | 242 W/m² | - |
| 1777996413 | 25.56° C | 70% | 1005.1 hPa | 0 mm | 1.79 m/s, 199° | 219 W/m² | - |
| 1777996110 | 25° C | 70% | 1005 hPa | 0 mm | 1.79 m/s, 145° | 250 W/m² | - |
| 1777995806 | 25° C | 70% | 1005 hPa | 0 mm | 2.68 m/s, 191° | 250 W/m² | - |
| 1777995503 | 25° C | 70% | 1005 hPa | 0 mm | 3.13 m/s, 215° | 244 W/m² | - |
| 1777995200 | 25° C | 71% | 1005 hPa | 0 mm | 2.68 m/s, 209° | 242 W/m² | - |
| 1777994897 | 25° C | 71% | 1004.8 hPa | 0 mm | 1.34 m/s, 171° | 218 W/m² | - |
| 1777994594 | 24.44° C | 72% | 1004.7 hPa | 0 mm | 2.68 m/s, 249° | 202 W/m² | - |
| 1777994293 | 24.44° C | 72% | 1004.9 hPa | 0 mm | 3.58 m/s, 199° | 181 W/m² | - |
| 1777993991 | 24.44° C | 73% | 1004.9 hPa | 0 mm | 2.68 m/s, 166° | 187 W/m² | - |
| 1777993687 | 24.44° C | 73% | 1004.9 hPa | 0 mm | 4.02 m/s, 224° | 180 W/m² | - |
| 1777993385 | 24.44° C | 73% | 1004.9 hPa | 0 mm | 1.34 m/s, 182° | 183 W/m² | - |
| 1777993079 | 24.44° C | 73% | 1004.8 hPa | 0 mm | 3.13 m/s, 219° | 225 W/m² | - |
| 1777992778 | 24.44° C | 73% | 1004.8 hPa | 0 mm | 2.68 m/s, 169° | 276 W/m² | - |
| 1777992475 | 23.89° C | 74% | 1004.7 hPa | 0 mm | 1.34 m/s, 231° | 456 W/m² | - |
| 1777992173 | 23.33° C | 75% | 1004.9 hPa | 0 mm | 2.24 m/s, 202° | 292 W/m² | - |
| 1777991869 | 23.33° C | 76% | 1004.7 hPa | 0 mm | 3.58 m/s, 234° | 173 W/m² | - |
| 1777991567 | 23.33° C | 75% | 1005 hPa | 0 mm | 4.02 m/s, 214° | 233 W/m² | - |
| 1777991264 | 22.78° C | 76% | 1004.8 hPa | 0 mm | 3.58 m/s, 225° | 180 W/m² | - |
| 1777990961 | 22.78° C | 76% | 1004.7 hPa | 0 mm | 3.58 m/s, 202° | 206 W/m² | - |
| 1777990659 | 22.78° C | 76% | 1004.8 hPa | 0 mm | 3.58 m/s, 246° | 212 W/m² | - |
| 1777990356 | 22.78° C | 76% | 1004.7 hPa | 0 mm | 4.02 m/s, 223° | 220 W/m² | - |
| 1777990052 | 22.22° C | 77% | 1004.7 hPa | 0 mm | 2.68 m/s, 239° | 204 W/m² | - |
| 1777989749 | 22.22° C | 78% | 1004.6 hPa | 0 mm | 4.47 m/s, 166° | 170 W/m² | - |
* Rain latest hour (hover to see other rain measurements)
** Current wind speed in m/s (hover to see current wind gust speed)